Location: Bydgoszcz
(53.1640°N, 17.9142°E)
Time: 11:17:03
(UTC+02:00)

PCSat - Visible Passes

Search period start: 17 April 2024 00:00
Search period end: 27 April 2024 00:00
Orbit: 783 x 792 km, 67.0° (Epoch: 17 April)

Date Brightness Start Highest point End Pass type
(mag) Time Alt. Az. Time Alt. Az. Time Alt. Az.
17 Apr 11.9 00:23:23 10° WNW 00:27:40 23° NNW 00:31:58 10° NNE visible
17 Apr 12.2 02:09:02 10° NW 02:12:54 19° N 02:16:46 10° NE visible
17 Apr 11.4 03:52:53 10° NNW 03:57:50 34° NNE 04:02:45 10° E visible
17 Apr 10.4 20:24:01 10° S 20:28:32 28° ESE 20:33:04 10° NE visible
17 Apr 9.9 22:06:06 10° SW 22:11:30 69° NW 22:16:56 10° NE visible
17 Apr 11.8 23:51:19 10° W 23:55:48 25° NNW 00:00:17 10° NNE visible
18 Apr 12.3 01:37:09 10° NW 01:40:58 19° N 01:44:46 10° NE visible
18 Apr 11.6 03:21:17 10° NNW 03:26:01 29° NNE 03:30:44 10° E visible
18 Apr 9.6 21:34:26 10° SW 21:39:51 85° NW 21:45:20 10° NE visible
18 Apr 11.6 23:19:15 10° W 23:23:56 29° NNW 23:28:39 10° NNE visible
19 Apr 12.3 01:05:13 10° NW 01:09:01 19° N 01:12:49 10° NE visible
19 Apr 11.8 02:49:38 10° NNW 02:54:10 26° NNE 02:58:41 10° E visible
19 Apr 9.9 04:32:58 10° NW 04:38:25 72° NE 04:43:50 10° SE visible
19 Apr 9.5 21:02:51 10° SSW 21:08:15 77° SE 21:13:42 10° NE visible
19 Apr 11.4 22:47:14 10° W 22:52:07 33° NNW 22:57:02 10° NNE visible
20 Apr 12.3 00:33:14 10° NW 00:37:05 19° N 00:40:56 10° NE visible
20 Apr 12.0 02:17:58 10° NNW 02:22:17 23° NNE 02:26:37 10° ENE visible
20 Apr 10.3 04:01:22 10° NW 04:06:45 58° NE 04:12:05 10° ESE visible
20 Apr 9.6 20:31:23 10° SSW 20:36:41 60° ESE 20:42:02 10° NE visible
20 Apr 11.1 22:15:16 10° WSW 22:20:19 39° NW 22:25:25 10° NNE visible
21 Apr 12.2 00:01:11 10° WNW 00:05:09 20° N 00:09:06 10° NE visible
21 Apr 12.1 01:46:16 10° NW 01:50:24 21° NNE 01:54:31 10° ENE visible
21 Apr 10.7 03:29:46 10° NW 03:35:02 47° NE 03:40:16 10° ESE visible
21 Apr 10.7 21:43:21 10° WSW 21:48:34 46° NW 21:53:49 10° NE visible
21 Apr 12.1 23:29:06 10° WNW 23:33:13 21° NNW 23:37:20 10° NE visible
22 Apr 12.2 01:14:30 10° NW 01:18:28 20° N 01:22:27 10° ENE visible
22 Apr 11.0 02:58:10 10° NNW 03:03:17 39° NE 03:08:21 10° ESE visible
22 Apr 9.6 04:41:33 10° NW 04:46:53 58° WSW 04:52:11 10° SSE visible
22 Apr 10.4 21:11:31 10° WSW 21:16:51 57° NW 21:22:12 10° NE visible
22 Apr 12.0 22:57:01 10° WNW 23:01:19 23° NNW 23:05:38 10° NNE visible
23 Apr 12.3 00:42:40 10° NW 00:46:33 19° N 00:50:24 10° NE visible
23 Apr 11.3 02:26:33 10° NNW 02:31:29 33° NNE 02:36:23 10° E visible
23 Apr 9.5 04:09:53 10° NW 04:15:20 75° SW 04:20:43 10° SSE visible
23 Apr 10.0 20:39:45 10° SW 20:45:09 70° NW 20:50:36 10° NE visible
23 Apr 11.9 22:24:55 10° W 22:29:26 26° NNW 22:33:56 10° NNE visible
24 Apr 12.3 00:10:47 10° NW 00:14:35 19° N 00:18:24 10° NE visible
24 Apr 11.6 01:54:56 10° NNW 01:59:39 29° NNE 02:04:22 10° E visible
24 Apr 9.6 03:38:14 10° NW 03:43:43 87° NE 03:49:09 10° SE visible
24 Apr 11.7 21:52:52 10° W 21:57:34 29° NNW 22:02:18 10° NNE visible
24 Apr 12.3 23:38:50 10° NW 23:42:38 19° N 23:46:26 10° NE visible
25 Apr 11.8 01:23:17 10° NNW 01:27:48 26° NNE 01:32:18 10° E visible
25 Apr 9.9 03:06:37 10° NW 03:12:04 70° NE 03:17:28 10° SE visible
25 Apr 11.5 21:20:51 10° W 21:25:44 33° NNW 21:30:40 10° NNE visible
25 Apr 12.3 23:06:49 10° NW 23:10:42 19° N 23:14:33 10° NE visible
26 Apr 11.9 00:51:36 10° NNW 00:55:54 23° NNE 01:00:13 10° ENE visible
26 Apr 10.2 02:35:01 10° NW 02:40:23 57° NE 02:45:43 10° ESE visible
26 Apr 10.1 04:18:40 10° NW 04:23:33 35° WSW 04:28:25 10° S visible
26 Apr 11.2 20:48:52 10° WSW 20:53:56 39° NW 20:59:03 10° NNE visible
26 Apr 12.2 22:34:46 10° WNW 22:38:45 20° N 22:42:43 10° NE visible
